[[{"header":{"parameterUnit":"m.s-1","parameterCategory":1,"la1":30.2991,"la2":30.254,"lo1":-89.0895,"lo2":-89.0444,"dy":0.0017,"dx":0.0017,"nx":28,"ny":28,"refTime":"2024-04-26T03:00:00:Z","depth":0,"parameterNumber":2,"parameterNumberName":"U-component_of_WINDS"},"data":[0,0,0,0,0,0,0,0,0,0,0,0,0,0,0,0,0,0,0,0,0,0,0,0,0,0,0,0,0,0,0,0,0,0,0,0,0,0,0,0,0,0,0,0,0,0,0,0,0,0,0,0,0,0,0,0,0,0,-2.8966,-2.8967,0,-2.905,-2.9051,-2.9052,-2.9048,-2.9047,-2.9046,-2.9045,-2.913,-2.9134,-2.9137,0,0,0,0,0,0,0,0,0,0,0,0,0,-2.8802,-2.8805,-2.8966,-2.8967,-2.8968,-2.905,-2.9051,-2.9052,-2.9048,-2.9047,-2.9045,-2.9044,-2.9129,-2.9133,-2.9137,0,0,0,0,0,0,0,0,0,0,0,0,0,-2.8878,-2.8806,-2.8965,-2.8976,-2.8978,-2.9049,-2.9051,-2.9052,-2.9049,-2.9047,-2.9045,-2.9043,-2.9128,-2.9133,-2.9138,-2.9205,0,0,-2.9154,-2.9156,0,0,0,0,0,0,0,0,-2.8874,-2.8884,-2.8973,-2.8975,-2.8977,-2.9037,-2.9025,-2.9103,-2.9049,-2.9022,-2.9045,-2.9043,-2.9101,-2.9108,-2.9128,-2.9209,-2.9213,-2.9154,-2.9157,-2.9159,-2.9161,0,0,0,0,0,0,0,-2.8869,-2.8881,-2.8999,-2.8974,-2.8977,-2.8976,-2.8985,-2.9039,-2.907,-2.9024,-2.9024,-2.9034,-2.9101,-2.9123,-2.913,-2.9214,-2.9154,-2.9158,-2.9161,-2.9163,-2.9354,-2.9356,0,0,0,0,0,0,-2.8861,-2.8876,-2.8996,-2.9001,-2.892,-2.8981,-2.8991,-2.9019,-2.9069,-2.9075,-2.9035,-2.9033,-2.9115,-2.9124,-2.9133,-2.9214,-2.9159,-2.9164,-2.9167,-2.9352,-2.9354,-2.9357,0,0,0,0,0,0,-2.8858,-2.8872,-2.8993,-2.8939,-2.8954,-2.8985,-2.9018,-2.9022,-2.9043,-2.9078,-2.9083,-2.9051,-2.9114,-2.9125,-2.9187,-2.9216,-2.9166,-2.9171,-2.935,-2.9353,-2.9356,-2.9376,0,0,0,0,0,0,-2.8853,-2.8871,-2.8896,-2.894,-2.8957,-2.9046,-2.902,-2.9025,-2.9052,-2.905,-2.9095,-2.91,-2.9113,-2.9179,-2.9192,-2.9223,-2.9175,-2.9347,-2.9351,-2.9355,-2.9373,-2.938,-2.9385,0,0,0,0,0,-2.8847,-2.8899,-2.8898,-2.8912,-2.899,-2.9047,-2.9057,-2.9072,-2.9054,-2.908,-2.9103,-2.9099,-2.9212,-2.9186,-2.92,-2.9232,-2.9345,-2.935,-2.9354,-2.937,-2.9378,-2.9385,0,0,0,0,0,0,-2.8858,-2.8905,-2.8904,-2.8971,-2.9005,-2.9047,-2.908,-2.908,-2.9119,-2.9116,-2.9132,-2.9142,-2.9204,-2.9224,-2.9195,-2.93,-2.9276,-2.9284,-2.9284,-2.9292,-2.9298,-2.9291,-2.9179,0,0,0,0,0,-2.8869,-2.8911,-2.895,-2.9005,-2.9023,-2.9048,-2.9074,-2.9082,-2.9118,-2.9132,-2.9159,-2.9195,-2.9238,-2.9266,-2.9308,-2.9377,-2.9386,-2.9406,-2.9412,-2.9417,-2.9423,-2.9461,-2.947,-2.9371,-2.9371,-2.9371,0,0,-2.889,-2.8921,-2.8947,-2.9008,-2.9036,-2.908,-2.906,-2.9108,-2.9141,-2.914,-2.9199,-2.922,-2.9261,-2.9326,-2.9356,-2.9345,-2.9453,-2.9423,-2.9427,-2.943,-2.9466,-2.9475,-2.9484,-2.9375,-2.9374,-2.9374,0,0,-2.8952,-2.898,-2.9029,-2.9057,-2.9098,-2.9115,-2.9127,-2.9169,-2.9183,-2.9243,-2.9243,-2.9283,-2.9357,-2.9386,-2.941,-2.9483,-2.948,-2.9496,-2.9528,-2.9564,-2.9572,-2.9579,-2.9604,-2.9613,-2.9502,-2.9503,-2.9503,0,-2.8973,-2.9039,-2.9054,-2.9101,-2.9128,-2.913,-2.918,-2.9206,-2.926,-2.9278,-2.9266,-2.9359,-2.9386,-2.9458,-2.9476,-2.9496,-2.951,-2.9491,-2.957,-2.9577,-2.9583,-2.9608,-2.9617,-2.9504,-2.9504,-2.9504,-2.9504,0,-2.9063,-2.9109,-2.9144,-2.9195,-2.9226,-2.9275,-2.9297,-2.9326,-2.9332,-2.935,-2.9411,-2.9444,-2.9493,-2.9511,-2.9517,-2.9583,-2.9575,-2.9566,-2.9542,-2.9594,-2.9617,-2.9626,-2.9506,-2.9506,-2.9505,-2.9505,0,0,-2.9133,-2.9192,-2.9205,-2.9228,-2.9275,-2.931,-2.9359,-2.9406,-2.9431,-2.9469,-2.9509,-2.9573,-2.9564,-2.9592,-2.9601,-2.9634,-2.9688,-2.962,-2.9621,-2.9631,-2.9763,-2.9769,-2.978,-2.9688,-2.969,-2.9691,-2.976,0,-2.9199,-2.9285,-2.9299,-2.9375,-2.9417,-2.942,-2.9462,-2.9495,-2.9514,-2.9553,-2.9573,-2.9617,-2.9604,-2.962,-2.9652,-2.9675,-2.9715,-2.967,-2.9725,-2.9727,-2.9714,-2.9792,-2.9798,-2.9861,-2.9769,-2.977,-2.9772,0,-2.9286,-2.9326,-2.9405,-2.9446,-2.9464,-2.9502,-2.9546,-2.9584,-2.9622,-2.9633,-2.9664,-2.967,-2.972,-2.9695,-2.9765,-2.9734,-2.9758,-2.9773,-2.9776,-2.978,-2.9751,-2.9798,-2.9882,-2.9891,-2.9786,-2.9785,-2.9784,0,-2.9328,-2.9401,-2.9458,-2.9478,-2.9527,-2.9554,-2.9575,-2.9611,-2.9639,-2.9678,-2.9696,-2.9741,-2.9765,-2.98,-2.9817,-2.9798,-2.9886,-2.9862,-2.9896,-2.9895,-2.9913,-2.9912,-3.0001,-2.993,-2.993,-2.993,-2.993,0,-2.94,-2.9448,-2.9477,-2.9512,-2.9566,-2.9583,-2.9636,-2.9658,-2.969,-2.9729,-2.9734,-2.9771,-2.9792,-2.9832,-2.9846,-2.9901,-2.9913,-2.9923,-2.9926,-2.9922,-2.992,-2.9937,-2.9932,-2.9933,-2.9932,-2.9932,-2.9931,0,-2.9455,-2.9477,-2.9539,-2.958,-2.9592,-2.963,-2.9666,-2.97,-2.9718,-2.9768,-2.978,-2.981,-2.9857,-2.9878,-2.9936,-2.9946,-3.0008,-3.0009,-2.9995,-2.9996,-3.0028,-3.0025,-3.0131,-3.0145,-3.0065,-3.0066,-3.0067,0,-2.9499,-2.9536,-2.9581,-2.9608,-2.963,-2.9673,-2.9701,-2.9719,-2.9748,-2.9794,-2.9823,-2.987,-2.9908,-2.9983,-3.001,-3.0054,-3.0055,-3.009,-3.0062,-3.0057,-3.0055,-3.0052,-3.0055,-3.0094,-3.0095,-3.0095,-3.0096,0,-2.9573,-2.9582,-2.9622,-2.9667,-2.97,-2.9736,-2.9771,-2.9792,-2.9816,-2.9848,-2.9896,-2.9926,-2.9986,-3.0032,-3.0078,-3.0101,-3.0102,-3.0105,-3.0115,-3.011,-3.0101,-3.0105,-3.0008,-3.0102,-3.0101,-3.0101,-3.0101,-3.01,-2.9624,-2.9657,-2.9694,-2.9738,-2.9767,-2.9799,-2.9833,-2.9856,-2.9896,-2.9946,-2.9954,-3.0005,-3.0042,-3.0105,-3.0129,-3.0169,-3.0161,-3.0175,-3.0179,-3.0182,-3.0183,-3.0095,-3.0178,-3.0178,-3.0177,-3.0177,-3.0177,0,-2.9698,-2.9722,-2.9763,-2.9812,-2.9847,-2.9845,-2.9884,-2.9913,-2.9958,-2.9992,-3.003,-3.0085,-3.0131,-3.0161,-3.0207,-3.0233,-3.0235,-3.0245,-3.0242,-3.0247,-3.0189,-3.0175,-3.0242,-3.0242,-3.0242,-3.0242,-3.0242,-3.0242,-2.9741,-2.9796,-2.981,-2.9879,-2.9903,-2.9953,-2.9975,-3.0005,-3.0032,-3.0094,-3.0131,-3.0151,-3.0183,-3.0232,-3.0273,-3.0281,-3.0297,-3.0307,-3.0314,-3.0258,-3.0252,-3.0245,-3.0232,-3.0311,-3.0311,-3.037,-3.037,-3.0371]},{"header":{"parameterUnit":"m.s-1","parameterCategory":1,"la1":30.2991,"la2":30.254,"lo1":-89.0895,"lo2":-89.0444,"dy":0.0017,"dx":0.0017,"nx":28,"ny":28,"refTime":"2024-04-26T03:00:00:Z","depth":0,"parameterNumber":3,"parameterNumberName":"V-component_of_WINDS"},"data":[0,0,0,0,0,0,0,0,0,0,0,0,0,0,0,0,0,0,0,0,0,0,0,0,0,0,0,0,0,0,0,0,0,0,0,0,0,0,0,0,0,0,0,0,0,0,0,0,0,0,0,0,0,0,0,0,0,0,5.0834,5.0835,0,5.0864,5.0865,5.0865,5.0777,5.0774,5.0771,5.0769,5.0796,5.0799,5.0802,0,0,0,0,0,0,0,0,0,0,0,0,0,5.0698,5.0701,5.0834,5.0835,5.0835,5.0864,5.0865,5.0865,5.0777,5.0774,5.0771,5.0768,5.0795,5.0799,5.0803,0,0,0,0,0,0,0,0,0,0,0,0,0,5.0745,5.0702,5.0834,5.0795,5.0792,5.0864,5.0865,5.0865,5.0778,5.0774,5.077,5.0766,5.0794,5.0799,5.0803,5.0914,0,0,5.0818,5.082,0,0,0,0,0,0,0,0,5.0743,5.075,5.08,5.0798,5.0794,5.0813,5.0826,5.0881,5.0779,5.0783,5.0769,5.0764,5.0805,5.0808,5.0823,5.0916,5.0917,5.0819,5.0822,5.0824,5.0825,0,0,0,0,0,0,0,5.074,5.0749,5.0846,5.0801,5.0797,5.0775,5.0777,5.0836,5.0816,5.0782,5.0776,5.0781,5.0802,5.0818,5.0823,5.0917,5.0818,5.0823,5.0826,5.0828,5.1101,5.1105,0,0,0,0,0,0,5.0742,5.0746,5.0845,5.0847,5.0758,5.078,5.0783,5.0811,5.0815,5.0812,5.0784,5.0777,5.0812,5.0817,5.0823,5.0952,5.0824,5.0828,5.0831,5.1097,5.1102,5.1107,0,0,0,0,0,0,5.0739,5.0752,5.0844,5.0795,5.0805,5.0787,5.0819,5.0813,5.0829,5.0817,5.0812,5.0805,5.0809,5.0817,5.0892,5.0952,5.083,5.0835,5.1092,5.1099,5.1105,5.1212,0,0,0,0,0,0,5.0736,5.0751,5.0794,5.0797,5.0808,5.0913,5.0823,5.0817,5.0838,5.0829,5.0835,5.0832,5.0806,5.0886,5.0897,5.0957,5.0839,5.1086,5.1095,5.1103,5.1203,5.1221,5.1237,0,0,0,0,0,5.0731,5.0822,5.0796,5.0809,5.0861,5.0917,5.0923,5.0893,5.0844,5.0886,5.0878,5.0832,5.0944,5.0894,5.0906,5.0968,5.1082,5.1092,5.1102,5.1195,5.1218,5.1237,0,0,0,0,0,0,5.0825,5.0822,5.0793,5.0888,5.0904,5.0902,5.0954,5.0918,5.0947,5.0937,5.0897,5.0899,5.0982,5.0983,5.0927,5.1075,5.1005,5.1017,5.1071,5.1093,5.1109,5.1106,5.0843,0,0,0,0,0,5.0858,5.0904,5.0898,5.0983,5.0992,5.0972,5.0995,5.0971,5.0985,5.0991,5.0988,5.1003,5.1041,5.1067,5.1102,5.1204,5.1203,5.1252,5.1269,5.1283,5.1294,5.1347,5.1368,5.1139,5.1139,5.1139,0,0,5.0924,5.0928,5.0959,5.1002,5.1011,5.1059,5.0978,5.1033,5.1067,5.0999,5.107,5.1069,5.1082,5.1171,5.121,5.1174,5.1358,5.1296,5.1307,5.131,5.1359,5.1381,5.14,5.1146,5.1145,5.1143,0,0,5.1068,5.1077,5.1147,5.1159,5.1174,5.1161,5.1178,5.1182,5.1179,5.125,5.12,5.124,5.1308,5.1319,5.1334,5.1485,5.1443,5.1497,5.1585,5.1637,5.1655,5.1671,5.1723,5.1742,5.1508,5.1509,5.1509,0,5.1148,5.1219,5.1188,5.1246,5.1266,5.1208,5.1278,5.129,5.1316,5.133,5.1291,5.1374,5.1379,5.1469,5.1506,5.1521,5.1538,5.1495,5.1655,5.1671,5.1685,5.1734,5.1754,5.1515,5.1514,5.1514,5.1513,0,5.1316,5.1367,5.1422,5.1449,5.1475,5.1539,5.1517,5.1547,5.1521,5.1511,5.1584,5.1589,5.1623,5.1643,5.1618,5.173,5.1707,5.1662,5.159,5.1714,5.1759,5.1778,5.1524,5.1522,5.152,5.1518,0,0,5.1519,5.1529,5.155,5.1561,5.1575,5.1612,5.1674,5.1709,5.1735,5.1755,5.1804,5.1863,5.1822,5.1839,5.1815,5.186,5.1978,5.181,5.1809,5.1839,5.21,5.2132,5.2154,5.1951,5.1955,5.1957,5.2098,0,5.166,5.1766,5.174,5.1844,5.189,5.1836,5.1889,5.1903,5.1896,5.1932,5.1924,5.1966,5.1909,5.1919,5.1962,5.1954,5.2029,5.1944,5.1995,5.1997,5.1991,5.2178,5.2213,5.2345,5.2116,5.2119,5.2121,0,5.1838,5.1866,5.1976,5.1982,5.2,5.2048,5.2078,5.2115,5.2128,5.212,5.214,5.2107,5.2166,5.2096,5.2176,5.2119,5.2138,5.2138,5.2142,5.2144,5.2065,5.2183,5.2386,5.2406,5.2149,5.2147,5.2145,0,5.1973,5.2039,5.2112,5.2124,5.2133,5.2168,5.2174,5.2184,5.2206,5.2232,5.2246,5.2279,5.2296,5.2321,5.2297,5.2249,5.2381,5.2309,5.2375,5.2375,5.2403,5.2401,5.261,5.2419,5.2419,5.2419,5.2418,0,5.2132,5.2201,5.2173,5.2218,5.2293,5.2262,5.2337,5.2336,5.2346,5.2389,5.2345,5.2386,5.2353,5.2391,5.2373,5.2441,5.245,5.2444,5.2438,5.2447,5.2447,5.2457,5.2447,5.2424,5.2423,5.2422,5.2421,0,5.2294,5.2279,5.2355,5.2358,5.2361,5.2416,5.2418,5.2459,5.2449,5.2505,5.2516,5.25,5.2543,5.2522,5.2567,5.2554,5.2642,5.2625,5.2638,5.2633,5.2699,5.2692,5.292,5.2948,5.2741,5.2743,5.2745,0,5.2396,5.2448,5.2457,5.2483,5.2492,5.2535,5.2558,5.253,5.2556,5.2576,5.2615,5.2654,5.2683,5.2754,5.2746,5.2779,5.2761,5.2839,5.2766,5.2773,5.276,5.2757,5.2761,5.2853,5.2855,5.2857,5.2859,0,5.2577,5.2567,5.2603,5.2637,5.2666,5.269,5.2711,5.2735,5.2708,5.2739,5.2782,5.2806,5.2851,5.289,5.2919,5.2923,5.2886,5.2882,5.2899,5.2907,5.2912,5.2909,5.2676,5.2876,5.2875,5.2873,5.2872,5.2872,5.2711,5.2754,5.2768,5.2809,5.2822,5.2842,5.2881,5.2877,5.2913,5.2949,5.293,5.2981,5.2993,5.3029,5.3039,5.3077,5.3046,5.3071,5.3076,5.3082,5.3091,5.2908,5.3082,5.3082,5.3081,5.3081,5.3081,0,5.2889,5.2895,5.2934,5.2964,5.2997,5.2961,5.2982,5.3011,5.3057,5.3072,5.3103,5.3152,5.319,5.3186,5.322,5.3252,5.3236,5.3262,5.3258,5.3259,5.3117,5.3098,5.3274,5.3274,5.3274,5.3274,5.3274,5.3274,5.2985,5.3056,5.3048,5.3124,5.3129,5.318,5.3195,5.3213,5.3225,5.3283,5.3315,5.3312,5.332,5.3354,5.3387,5.3385,5.3399,5.3431,5.3422,5.3289,5.3269,5.3251,5.3233,5.3434,5.3435,5.3561,5.3562,5.3563]}]]